Temperature
17 17 17 17 20 21 21 20 19 18 17 15 15 16 17 17 17 16 11 12 12 12 12 13 13 13 13 13 13 13 14 14 14 14 14 14 15 15 15 15 15 15 15 15 15 15 15 15 15
16 17 17 18 21 21 20 19 18 17 16 14 14 14 15 14 12 11 11 12 12 12 12 12 12 13 13 13 13 13 14 14 14 14 14 14 14 14 14 14 14 14 14 15 15 15 15 15 15
16 16 17 19 20 21 20 18 17 15 13 14 14 13 14 12 10 10 11 11 11 12 12 12 12 12 13 13 13 13 13 14 14 14 14 14 14 14 14 14 14 14 14 14 14 14 15 15 15
16 16 17 19 18 18 18 17 15 15 13 13 14 14 11 10 9 10 11 11 11 11 11 12 12 12 12 13 13 13 13 13 13 14 14 14 14 14 14 14 14 14 14 14 14 14 14 14 14
15 17 18 18 18 17 16 15 14 15 15 13 13 14 12 10 10 10 11 11 11 11 11 12 12 12 12 12 12 13 13 13 13 13 13 13 14 13 13 13 14 14 14 14 14 14 14 14 14
15 17 19 18 18 16 15 13 13 14 14 12 12 13 11 10 10 10 11 11 11 11 11 11 11 11 12 12 12 12 13 13 13 13 13 13 13 13 13 13 13 13 13 13 14 14 14 14 14
16 17 18 18 17 16 14 11 13 14 13 12 11 13 11 9 10 10 10 10 11 11 11 11 11 11 11 11 12 12 12 13 13 13 13 13 13 13 13 13 13 13 13 13 13 13 13 13 13
13 16 16 16 16 16 13 11 10 11 12 10 10 12 11 9 9 10 10 10 10 10 10 11 11 11 11 11 11 12 12 12 12 12 12 12 13 13 13 12 12 13 13 13 13 13 13 13 13
12 16 16 16 16 14 11 11 9 8 9 8 8 9 8 9 9 9 9 10 10 10 10 10 10 10 11 11 11 11 11 11 12 12 12 12 12 12 12 12 12 12 12 12 13 12 12 13 13
13 15 15 13 13 12 10 10 9 9 10 9 8 8 8 8 9 9 9 9 9 9 10 10 10 10 10 10 11 11 11 11 11 11 11 11 11 11 11 11 11 12 12 12 12 12 12 12 12
12 13 11 10 9 9 9 9 8 10 11 10 9 7 7 8 8 8 8 8 8 8 9 9 9 9 10 10 10 10 10 10 10 10 11 11 11 11 11 11 11 11 11 11 11 12 11 11 11
10 9 9 9 7 8 9 8 8 8 9 8 7 7 7 7 7 8 8 8 8 8 8 8 9 9 9 9 9 9 10 10 10 10 10 10 10 10 10 10 10 10 10 11 11 11 11 11 11
10 8 7 6 6 6 7 7 7 7 6 6 6 6 6 7 7 7 7 7 7 7 8 8 8 8 8 8 9 9 9 9 9 9 9 9 9 10 10 10 10 10 10 10 10 10 10 11 11
8 7 7 6 6 6 7 7 6 7 6 6 6 6 6 6 6 6 7 7 7 7 7 7 7 8 8 8 8 8 8 8 8 8 9 9 9 9 9 9 9 10 10 10 10 10 10 10 10
7 8 8 7 7 6 7 8 7 6 5 6 6 5 5 5 6 6 6 6 6 7 7 7 7 7 7 7 7 7 8 8 8 8 8 8 8 8 9 9 9 9 9 9 9 10 10 10 10
8 9 10 8 7 6 8 10 9 6 6 6 5 5 5 5 5 6 6 6 6 6 6 6 6 6 7 7 7 7 7 7 7 7 7 7 8 8 8 8 8 9 9 9 9 9 9 9 9
10 11 11 9 7 7 8 9 8 5 5 6 5 5 4 4 4 5 5 6 6 6 6 6 6 6 6 6 6 6 6 6 7 7 7 7 7 7 7 8 8 8 8 8 8 9 9 9 9
10 10 10 9 7 6 7 8 8 6 5 5 5 4 4 4 4 4 4 5 5 5 5 5 5 5 5 5 6 6 6 6 6 6 7 7 7 7 7 7 7 7 8 8 8 8 8 8 8
8 8 9 8 6 6 7 7 7 6 5 5 4 4 3 3 3 3 4 4 4 5 5 5 5 5 5 5 5 5 5 5 6 6 6 6 6 7 7 7 7 7 7 7 7 8 8 8 8
7 7 8 7 5 5 6 6 7 6 5 4 4 3 3 3 2 2 3 3 3 4 4 4 4 4 4 4 4 5 5 5 5 6 6 6 6 6 6 6 6 6 7 7 7 7 7 7 7
6 7 7 6 5 5 5 7 7 6 4 3 3 2 2 2 2 2 2 2 3 3 3 3 3 4 4 4 4 4 4 4 4 5 5 5 5 6 6 6 6 6 6 6 6 6 6 6 6
6 5 5 4 5 7 5 8 8 6 5 4 3 2 2 1 1 1 1 2 2 2 2 2 2 3 3 3 3 3 3 3 4 4 4 5 5 5 5 5 5 5 5 6 6 6 6 6 6
5 3 3 4 4 5 5 5 8 5 5 5 4 2 1 1 1 1 1 1 1 2 2 2 2 2 2 2 2 3 3 3 3 4 4 4 4 4 5 5 5 5 5 5 5 5 5 5 5
3 3 3 3 4 5 5 6 8 6 5 4 3 2 1 0 0 0 1 1 1 1 1 1 1 2 2 2 2 2 2 2 3 3 3 3 4 4 4 4 4 4 5 5 5 5 5 5 5
3 4 6 6 6 7 4 4 6 5 3 3 2 1 0 -0 -0 -0 -0 0 0 1 1 1 1 1 1 2 2 2 2 2 2 2 3 3 3 3 3 4 4 4 4 4 4 4 4 5 5
3 4 6 6 7 7 3 4 5 2 1 0 -0 -0 -1 -1 -1 -1 -1 -0 -0 0 0 0 1 1 1 1 1 1 1 2 2 2 2 2 2 3 3 3 3 4 4 4 4 4 4 4 4
2 3 2 3 3 4 6 4 4 2 1 0 -0 -1 -1 -1 -1 -1 -1 -1 -0 -0 -0 -0 0 0 0 0 1 1 1 1 1 1 2 2 2 2 2 3 3 3 3 3 3 3 3 3 4
1 2 2 3 4 5 6 5 5 3 2 1 -0 -1 -1 -2 -2 -2 -1 -1 -1 -1 -1 -1 -0 -0 -0 -0 0 0 0 0 1 1 1 1 1 2 2 2 2 3 3 3 3 3 3 3 3
0 0 1 2 2 4 5 6 3 2 1 0 -1 -1 -2 -2 -2 -2 -2 -2 -1 -1 -1 -1 -1 -0 -0 -0 -0 -0 -0 0 0 0 1 1 1 1 1 2 2 2 2 2 2 2 2 2 2
-0 0 1 2 2 1 3 4 1 0 -1 -1 -2 -2 -2 -3 -2 -2 -2 -2 -2 -2 -2 -2 -1 -1 -1 -1 -1 -1 -1 -0 -0 -0 -0 0 0 0 1 1 1 1 2 2 2 2 2 2 2
Wind_Speed
8 5 2 2 3 3 6 4 3 4 3 2 2 1 1 1 1 2 4 4 5 5 5 4 7 7 8 8 7 7 7 6 6 6 7 8 8 8 8 9 9 9 9 9 10 11 11 12 12
5 2 1 2 5 7 6 5 5 3 3 3 2 1 1 2 3 3 3 5 5 4 4 4 7 8 8 8 9 8 7 6 6 6 6 7 8 8 8 8 8 8 8 9 9 10 10 11 11
2 1 1 2 4 7 5 4 4 3 3 2 2 1 1 2 2 2 4 3 3 4 5 6 7 7 8 8 8 9 9 8 7 6 6 6 7 7 8 8 8 8 8 8 9 9 9 10 10
1 2 1 3 6 5 2 3 4 6 4 1 2 3 2 3 2 3 3 3 3 4 6 6 8 7 7 7 8 8 8 8 8 7 6 6 6 6 7 7 8 7 7 8 8 8 8 9 9
0 2 3 4 7 3 1 2 5 4 4 2 2 2 2 3 4 4 3 3 3 4 6 6 8 7 7 7 6 7 7 7 8 7 6 6 6 6 6 6 7 7 7 7 7 7 8 8 8
2 2 5 8 8 4 3 2 4 4 3 2 2 2 2 3 3 3 3 3 4 4 5 6 8 8 7 6 6 6 7 7 7 7 7 6 6 6 6 6 6 6 6 6 6 7 7 7 7
2 2 5 7 6 5 3 2 3 4 4 2 2 2 3 2 2 2 2 3 4 5 6 7 6 7 6 6 6 6 6 6 7 7 7 6 6 6 6 5 5 5 5 6 6 6 6 6 6
0 2 4 5 7 5 4 3 1 2 2 0 2 3 2 0 1 1 2 2 4 5 6 6 6 6 5 4 6 6 6 6 6 7 7 6 5 5 5 5 5 5 6 6 6 6 6 5 6
1 3 6 6 5 4 4 3 1 0 1 1 1 1 2 2 1 2 2 2 3 4 5 5 5 6 5 4 4 5 5 5 5 6 6 5 3 3 3 4 5 4 5 5 6 5 5 5 4
1 5 4 1 1 3 4 3 2 3 3 3 2 1 1 2 2 2 1 1 1 2 3 4 4 5 5 4 3 3 3 4 4 4 4 3 2 2 2 4 5 4 4 5 5 5 4 3 3
1 3 2 1 1 2 3 3 3 4 5 5 4 3 2 2 1 1 2 1 1 0 2 3 4 4 4 4 3 2 2 3 3 3 3 3 3 2 2 2 3 3 3 2 3 3 2 2 2
2 1 1 2 1 2 3 3 3 6 5 2 3 2 3 3 3 2 2 2 2 1 1 2 3 3 3 4 3 2 3 3 3 3 3 2 2 2 1 0 1 1 1 1 1 1 2 2 2
2 2 1 1 1 1 2 4 4 6 5 4 3 4 5 4 4 3 3 2 2 2 2 2 2 2 3 3 2 2 2 2 3 2 2 2 1 1 1 1 1 1 1 2 1 1 2 2 2
3 3 2 1 2 2 3 4 5 7 5 5 5 5 5 4 4 3 2 3 3 3 3 2 2 2 2 2 2 1 2 1 2 2 2 2 1 1 1 1 1 1 1 2 2 2 1 2 2
3 2 2 2 2 2 3 6 7 5 5 6 6 6 5 5 4 4 4 4 4 3 3 2 2 2 2 2 2 1 1 1 1 1 1 2 2 1 2 1 1 1 1 2 2 2 1 1 2
2 3 4 2 2 2 5 9 5 4 6 6 6 6 6 5 5 4 4 4 3 3 3 2 2 2 2 2 2 1 1 1 1 1 1 1 2 2 1 1 1 1 1 1 2 2 2 1 2
4 5 6 4 2 3 7 9 4 5 7 7 7 7 6 5 5 4 4 4 3 3 3 2 2 2 2 2 2 1 1 1 1 1 1 1 2 2 2 1 1 1 1 1 2 2 3 3 2
5 6 6 6 2 5 9 12 9 8 8 9 8 7 6 6 6 5 4 4 3 3 3 3 2 2 2 2 2 1 1 1 2 1 2 2 2 2 2 2 2 1 1 1 2 2 3 3 2
3 5 7 6 3 5 10 13 12 9 8 9 8 7 6 6 5 4 3 3 3 2 2 3 3 2 1 1 2 2 2 2 2 2 2 2 2 2 2 2 2 2 2 2 2 2 3 2 2
4 6 7 5 3 5 9 14 12 8 8 7 7 6 6 6 4 4 3 3 3 3 3 3 3 2 2 2 2 3 3 3 3 2 3 3 3 2 2 2 2 2 2 2 2 2 2 2 3
5 6 6 5 6 4 7 9 7 5 5 4 4 4 4 4 4 4 4 4 3 3 3 3 3 3 3 2 2 2 2 2 2 3 3 3 3 3 3 3 3 3 3 3 3 3 4 4 3
5 3 4 5 5 4 3 7 6 4 5 4 4 4 4 4 4 4 4 4 4 4 3 3 3 3 3 3 2 3 3 3 4 3 3 4 4 4 4 4 4 4 4 4 4 4 4 5 4
1 1 2 5 6 6 6 7 7 3 5 5 5 4 4 4 4 4 4 4 4 3 3 3 3 3 3 3 4 4 4 4 4 3 4 4 4 4 5 5 4 5 4 5 5 5 5 5 6
1 0 1 2 4 7 7 8 6 4 4 3 4 4 4 4 4 3 3 3 3 3 3 3 3 4 4 4 4 5 5 5 5 5 4 4 4 4 5 5 5 5 5 5 6 6 7 6 6
2 1 2 3 5 6 2 6 6 1 2 3 4 4 4 3 3 3 3 3 3 3 3 3 4 4 4 4 5 6 6 6 6 6 5 5 4 4 5 5 6 6 6 6 6 6 7 7 7
3 3 4 5 6 5 3 7 4 1 2 3 3 3 3 3 3 4 4 4 4 4 4 4 5 5 5 5 6 6 6 5 5 6 6 6 5 5 6 6 6 6 7 6 6 6 6 6 7
3 3 1 2 4 6 6 6 6 2 3 3 3 4 5 5 5 5 4 4 4 4 4 5 5 5 6 6 6 6 6 6 6 7 7 6 6 6 7 7 7 7 7 7 6 6 7 7 7
1 3 3 4 4 7 7 7 4 3 4 4 5 5 6 6 6 6 5 5 5 5 5 5 5 5 6 6 6 5 6 6 7 6 7 7 7 7 7 7 7 7 7 7 7 6 7 8 7
3 3 3 3 4 5 7 5 1 3 4 5 6 6 7 7 7 6 6 5 5 5 5 5 5 5 5 6 6 6 5 6 7 6 7 7 7 7 7 7 7 7 8 8 8 8 8 9 8
3 4 5 4 5 5 6 6 1 3 4 6 7 7 7 8 7 7 6 5 5 5 5 5 5 5 5 5 6 6 5 5 6 7 7 8 8 7 8 8 8 8 8 8 9 9 9 10 10
Wind_Direction
337 326 285 230 197 207 220 197 179 156 145 92 73 102 111 60 6 74 56 29 8 7 4 26 30 46 50 46 50 57 66 78 91 100 100 103 101 96 94 91 87 85 84 84 86 86 87 88 89
336 320 222 212 221 220 214 192 186 164 119 117 107 101 110 77 34 47 34 5 360 9 12 25 37 44 51 51 52 53 59 68 79 91 97 101 102 99 98 95 90 85 84 86 87 87 88 90 92
332 339 189 187 219 231 205 161 162 135 131 147 125 73 40 61 55 34 16 2 7 21 21 28 34 44 48 54 55 54 57 59 66 80 97 100 99 99 98 97 93 89 86 88 87 88 91 94 96
242 152 141 211 218 234 220 148 147 148 151 146 153 126 108 51 25 23 29 27 36 29 25 31 32 47 50 55 57 56 55 56 61 70 87 96 100 101 99 99 96 94 91 91 89 90 93 95 97
283 178 181 212 226 218 178 150 168 173 166 150 171 164 141 82 45 44 51 47 44 33 26 35 28 40 53 54 56 57 54 54 55 62 78 85 89 98 101 102 101 99 96 96 95 95 95 95 97
158 184 206 219 217 204 179 173 180 187 173 164 185 195 162 98 53 42 49 51 45 42 35 39 31 32 46 53 56 56 55 54 53 54 64 77 85 88 93 97 105 107 103 99 99 99 98 97 97
191 186 218 216 208 209 173 154 197 200 201 207 228 202 169 126 41 39 54 54 51 48 43 40 31 29 33 48 52 54 58 54 51 52 57 69 78 81 83 89 101 111 113 108 105 101 100 100 99
51 169 199 208 209 207 152 153 168 222 204 72 231 214 181 37 42 72 88 71 61 51 44 36 29 26 23 35 47 50 56 58 54 53 55 61 81 86 82 84 92 107 108 110 108 100 98 97 99
229 206 219 211 204 176 155 169 151 76 155 173 218 311 33 57 114 125 112 80 59 49 41 32 26 22 19 27 39 56 55 56 60 57 58 68 77 99 101 79 79 105 109 108 112 112 106 101 103
198 217 223 194 187 161 166 190 178 188 199 202 196 198 92 117 152 159 147 115 47 29 24 23 20 18 15 20 29 38 47 49 52 54 57 49 45 55 84 94 87 96 110 113 112 119 128 139 141
160 211 170 154 129 160 184 206 212 211 229 224 220 214 174 164 183 216 207 198 226 310 7 7 7 9 12 12 19 19 34 37 32 35 40 36 45 41 68 111 111 117 125 130 131 149 161 168 165
146 138 174 174 195 207 211 210 225 236 250 271 243 209 191 199 210 232 248 245 240 262 330 351 358 0 1 2 10 17 25 28 20 20 24 22 30 21 25 31 163 165 161 146 179 186 172 182 185
184 170 127 130 114 209 222 228 241 246 251 249 222 214 215 221 231 243 260 257 256 257 282 317 341 347 355 354 2 8 21 23 17 10 12 9 3 348 344 330 263 230 197 184 176 198 198 195 191
137 144 171 250 250 248 234 247 240 245 232 217 210 218 227 230 234 246 254 258 257 263 265 275 317 333 341 341 347 354 7 10 5 4 0 2 351 325 297 240 267 260 237 211 201 196 210 208 196
140 156 219 240 240 227 241 250 228 227 206 214 221 228 231 234 237 243 251 260 266 263 265 267 266 302 310 311 327 342 338 333 356 349 344 354 342 317 305 253 244 269 259 229 199 186 186 197 197
179 206 230 208 234 232 238 252 210 202 206 221 228 233 236 240 242 245 252 262 276 283 265 267 271 272 276 288 304 309 318 320 326 322 322 338 329 319 311 280 258 269 242 236 206 194 194 201 211
208 237 247 246 231 237 235 257 236 224 232 241 239 240 243 249 251 252 250 259 272 283 281 256 257 262 273 272 278 271 313 322 306 283 298 311 318 311 301 288 265 244 230 243 224 209 205 201 209
231 248 253 250 253 253 249 257 260 252 244 246 244 242 244 253 259 263 259 259 272 281 291 272 246 265 277 278 282 259 270 307 302 293 297 291 298 305 301 283 256 234 222 227 232 215 214 205 197
239 240 258 271 291 270 258 266 267 261 251 246 241 240 245 253 267 273 264 262 271 278 293 294 257 257 265 265 267 242 248 267 279 293 279 273 273 289 294 282 256 233 217 221 218 213 200 198 194
232 247 263 280 297 283 276 274 268 249 235 235 237 243 250 253 260 271 265 262 267 268 274 283 278 252 248 250 261 247 249 249 267 281 281 264 264 269 277 272 259 242 224 217 212 211 207 212 207
245 248 259 277 304 271 287 273 237 218 216 225 238 249 253 260 270 272 269 261 263 266 264 268 273 271 253 249 260 258 250 257 260 268 267 275 265 258 258 258 259 251 229 219 222 220 221 216 219
255 254 254 263 272 269 270 279 244 211 220 229 244 251 260 269 272 266 261 265 264 267 265 268 270 273 272 248 246 237 236 260 277 275 273 275 262 257 252 252 253 248 240 227 223 225 233 219 216
252 330 264 257 253 265 237 249 256 196 235 245 241 253 269 273 278 274 266 260 264 266 266 264 266 270 279 261 249 235 240 253 261 265 270 276 269 261 254 251 253 248 244 238 231 231 232 227 220
152 242 251 222 232 249 228 230 256 214 236 259 258 269 282 287 290 284 275 262 263 260 261 264 263 270 274 268 256 236 238 250 258 263 268 272 275 271 262 251 251 249 245 244 238 234 230 233 228
222 240 271 244 230 244 177 235 253 253 267 283 296 296 296 287 291 289 285 277 272 268 267 267 266 269 273 269 261 242 236 240 246 254 257 264 267 269 268 265 252 250 247 245 245 236 231 233 227
219 237 245 259 263 272 228 240 247 316 328 328 320 317 323 307 303 292 283 277 276 272 271 270 264 267 269 269 269 248 239 238 242 246 252 254 257 262 267 263 259 260 253 247 244 240 236 234 231
191 209 298 271 281 270 252 259 273 257 307 331 341 340 332 318 315 304 293 284 281 278 275 271 270 272 273 270 271 255 244 241 245 249 250 252 256 262 261 262 260 260 258 249 243 240 235 232 232
300 168 182 215 253 266 265 259 263 279 300 307 317 327 324 319 314 309 299 293 288 284 281 276 272 272 277 279 271 261 252 248 246 249 252 254 256 258 258 258 260 258 259 254 242 241 239 232 235
179 194 215 221 254 261 276 272 301 289 307 298 299 311 317 316 309 306 299 294 292 292 289 280 276 277 279 281 276 268 264 258 252 249 253 256 257 256 256 257 258 257 255 254 247 239 237 234 236
248 220 197 227 239 245 266 274 39 324 323 315 309 310 314 315 312 309 300 292 291 294 291 288 283 281 281 282 278 274 273 268 262 256 256 259 259 258 257 256 256 256 255 252 250 245 240 234 235
Height
1515 1516 1518 1520 1520 1518 1518 1520 1522 1526 1528 1532 1533 1532 1531 1532 1534 1540 1541 1537 1537 1538 1538 1539 1540 1540 1540 1540 1540 1540 1541 1541 1541 1541 1542 1542 1542 1542 1542 1543 1543 1543 1543 1543 1543 1543 1542 1542 1542
1515 1517 1520 1520 1516 1516 1517 1520 1524 1527 1531 1533 1534 1534 1534 1536 1538 1539 1537 1537 1537 1538 1538 1539 1539 1540 1540 1540 1540 1540 1540 1541 1541 1541 1542 1542 1542 1543 1543 1543 1543 1543 1544 1543 1543 1543 1543 1543 1543
1516 1517 1520 1518 1516 1513 1515 1522 1525 1530 1533 1533 1534 1535 1536 1538 1538 1538 1537 1537 1537 1538 1538 1538 1539 1539 1539 1539 1540 1540 1540 1540 1541 1541 1542 1542 1542 1542 1543 1543 1543 1543 1544 1544 1544 1544 1544 1544 1544
1517 1519 1520 1518 1518 1519 1520 1524 1528 1530 1533 1534 1534 1536 1537 1539 1538 1538 1537 1537 1537 1537 1538 1538 1538 1539 1539 1539 1539 1539 1540 1540 1540 1541 1541 1541 1542 1542 1543 1543 1543 1543 1544 1544 1544 1544 1545 1545 1545
1517 1518 1517 1519 1519 1521 1526 1528 1529 1529 1531 1534 1535 1535 1537 1538 1537 1537 1536 1537 1537 1537 1537 1537 1537 1538 1538 1538 1538 1539 1539 1539 1540 1540 1541 1541 1541 1542 1542 1543 1543 1543 1543 1544 1544 1544 1545 1545 1545
1518 1516 1515 1515 1517 1523 1527 1530 1531 1530 1532 1534 1535 1535 1537 1537 1536 1536 1536 1537 1537 1537 1537 1537 1537 1537 1537 1537 1538 1538 1538 1539 1539 1539 1540 1540 1541 1541 1542 1542 1542 1543 1543 1543 1544 1544 1545 1545 1545
1518 1516 1513 1513 1516 1521 1528 1531 1531 1530 1531 1534 1535 1535 1536 1536 1536 1536 1536 1536 1536 1536 1536 1536 1536 1536 1536 1537 1537 1537 1537 1538 1538 1539 1539 1540 1540 1540 1541 1541 1542 1542 1542 1543 1543 1544 1544 1545 1545
1518 1518 1517 1516 1516 1520 1528 1531 1532 1532 1532 1534 1535 1534 1535 1536 1535 1535 1535 1535 1535 1535 1535 1535 1535 1535 1535 1536 1536 1536 1536 1537 1537 1537 1538 1538 1539 1539 1540 1540 1541 1541 1541 1542 1542 1543 1543 1544 1545
1518 1518 1514 1515 1517 1522 1529 1530 1532 1532 1533 1533 1533 1534 1534 1534 1534 1534 1534 1534 1534 1534 1534 1534 1534 1534 1534 1535 1534 1534 1535 1535 1536 1536 1536 1537 1538 1538 1538 1539 1539 1540 1540 1541 1541 1542 1543 1543 1544
1519 1515 1515 1521 1522 1524 1528 1530 1532 1532 1532 1532 1533 1533 1533 1532 1533 1532 1532 1532 1532 1532 1532 1532 1532 1533 1533 1533 1533 1533 1533 1534 1534 1534 1535 1535 1536 1536 1537 1538 1538 1538 1539 1540 1540 1541 1541 1542 1543
1520 1518 1522 1525 1526 1527 1528 1530 1531 1530 1529 1530 1531 1531 1531 1531 1531 1531 1531 1531 1531 1531 1531 1531 1531 1531 1531 1531 1531 1531 1531 1532 1532 1532 1533 1533 1534 1534 1535 1536 1536 1537 1537 1538 1539 1539 1540 1541 1541
1522 1524 1525 1526 1527 1528 1528 1529 1530 1529 1528 1529 1529 1529 1529 1529 1529 1529 1529 1530 1530 1529 1529 1529 1530 1530 1529 1529 1530 1529 1529 1530 1530 1530 1531 1531 1531 1532 1533 1533 1534 1535 1535 1536 1537 1538 1538 1539 1540
1522 1525 1527 1527 1527 1527 1528 1527 1528 1527 1527 1527 1527 1527 1527 1527 1527 1527 1528 1528 1528 1527 1528 1528 1528 1528 1527 1527 1527 1528 1527 1528 1528 1528 1529 1529 1529 1530 1530 1531 1532 1533 1533 1534 1534 1535 1536 1538 1538
1523 1525 1526 1527 1526 1527 1526 1526 1526 1523 1524 1525 1525 1525 1525 1525 1525 1525 1525 1525 1525 1525 1526 1526 1526 1526 1526 1526 1525 1525 1525 1526 1526 1527 1527 1527 1527 1528 1528 1529 1529 1530 1531 1532 1532 1533 1534 1535 1536
1525 1524 1524 1525 1525 1526 1526 1521 1522 1521 1522 1522 1523 1523 1522 1522 1522 1522 1522 1522 1523 1523 1523 1523 1523 1524 1524 1524 1523 1524 1523 1524 1524 1525 1525 1525 1525 1526 1526 1526 1527 1527 1528 1529 1530 1531 1532 1533 1534
1523 1520 1517 1521 1524 1524 1525 1512 1517 1519 1520 1520 1520 1520 1520 1520 1519 1519 1519 1519 1520 1520 1521 1521 1521 1521 1521 1521 1521 1521 1521 1521 1522 1522 1522 1522 1523 1523 1523 1524 1524 1525 1525 1526 1527 1528 1529 1530 1531
1517 1512 1511 1518 1522 1522 1520 1511 1515 1517 1517 1517 1517 1517 1517 1517 1516 1516 1516 1517 1517 1517 1517 1518 1518 1518 1518 1518 1518 1518 1518 1519 1519 1519 1520 1520 1520 1520 1521 1521 1521 1522 1522 1523 1524 1525 1526 1527 1528
1511 1510 1511 1513 1519 1520 1516 1511 1512 1514 1514 1514 1514 1514 1514 1514 1513 1513 1513 1514 1514 1514 1514 1514 1515 1515 1515 1515 1515 1516 1516 1516 1516 1517 1517 1517 1517 1517 1518 1518 1518 1519 1519 1520 1521 1522 1523 1524 1525
1515 1514 1512 1514 1520 1519 1512 1508 1507 1509 1510 1510 1510 1511 1511 1511 1511 1510 1510 1511 1511 1511 1511 1511 1511 1512 1512 1512 1512 1512 1512 1513 1513 1514 1514 1514 1514 1515 1515 1515 1515 1515 1516 1517 1518 1518 1519 1521 1522
1517 1515 1512 1515 1519 1518 1511 1506 1503 1505 1506 1507 1507 1508 1508 1508 1508 1507 1507 1507 1507 1507 1508 1508 1508 1509 1509 1509 1509 1510 1510 1510 1510 1511 1511 1511 1511 1512 1512 1512 1512 1512 1513 1514 1515 1515 1516 1517 1519
1516 1514 1512 1515 1518 1517 1514 1498 1497 1501 1504 1505 1506 1505 1505 1505 1505 1504 1504 1504 1504 1504 1504 1504 1505 1505 1506 1506 1506 1507 1507 1507 1507 1507 1507 1508 1508 1508 1509 1509 1509 1509 1510 1510 1511 1512 1513 1514 1515
1513 1517 1518 1519 1515 1507 1512 1495 1489 1496 1500 1501 1502 1502 1503 1503 1502 1502 1501 1501 1501 1501 1501 1501 1502 1502 1502 1503 1503 1503 1502 1502 1503 1503 1503 1504 1504 1504 1505 1505 1506 1506 1507 1507 1508 1509 1510 1511 1511
1517 1521 1520 1519 1515 1512 1510 1507 1485 1495 1495 1497 1499 1500 1500 1500 1500 1499 1498 1498 1498 1498 1498 1498 1498 1499 1499 1499 1499 1499 1499 1499 1500 1500 1500 1500 1500 1500 1501 1501 1502 1503 1503 1504 1504 1505 1506 1507 1508
1522 1521 1520 1519 1514 1506 1501 1500 1481 1488 1492 1494 1496 1497 1497 1497 1497 1496 1495 1495 1495 1495 1495 1495 1495 1495 1495 1495 1495 1495 1495 1496 1496 1496 1496 1496 1496 1496 1497 1497 1498 1499 1499 1499 1500 1501 1502 1503 1504
1521 1515 1507 1502 1500 1489 1505 1501 1487 1490 1494 1495 1496 1496 1495 1495 1494 1493 1492 1492 1491 1491 1491 1492 1491 1491 1491 1492 1491 1492 1492 1492 1492 1492 1492 1492 1492 1492 1492 1493 1493 1494 1495 1495 1496 1497 1498 1499 1500
1519 1516 1507 1499 1487 1484 1505 1495 1487 1495 1496 1496 1496 1495 1493 1493 1492 1490 1490 1489 1488 1488 1488 1488 1487 1487 1487 1487 1487 1487 1488 1488 1488 1488 1488 1488 1488 1488 1488 1488 1489 1489 1490 1491 1492 1492 1493 1494 1495
1518 1515 1519 1514 1513 1505 1487 1490 1490 1492 1493 1494 1494 1493 1492 1491 1490 1488 1487 1486 1485 1484 1484 1483 1483 1483 1483 1483 1482 1482 1483 1483 1483 1484 1484 1484 1483 1483 1483 1483 1484 1484 1485 1486 1486 1487 1488 1489 1490
1521 1519 1518 1513 1503 1489 1481 1484 1481 1488 1490 1492 1492 1492 1491 1489 1487 1485 1484 1483 1482 1481 1480 1479 1479 1478 1478 1478 1478 1478 1478 1478 1479 1479 1479 1479 1479 1479 1479 1479 1479 1479 1480 1481 1481 1482 1483 1484 1485
1522 1522 1517 1512 1510 1496 1484 1479 1486 1489 1491 1492 1491 1491 1489 1487 1485 1483 1481 1480 1479 1477 1476 1475 1475 1474 1474 1474 1474 1473 1473 1473 1474 1474 1474 1474 1474 1474 1473 1473 1473 1474 1474 1475 1476 1476 1477 1478 1479
1520 1517 1516 1511 1509 1509 1496 1487 1491 1491 1492 1492 1491 1489 1488 1486 1483 1481 1479 1477 1475 1474 1472 1471 1470 1470 1470 1470 1469 1469 1469 1468 1469 1468 1468 1468 1468 1468 1468 1468 1468 1468 1468 1469 1470 1471 1471 1472 1473